SCP
0 0 0 0 0 0 0 0 0 0 0 0 0 0 0 0 0 0 0 0 0 0 0 0 0 0 0 0 0 0 0 0 0 0 0 0 0 0 0 0 0 0 0 0 0 0 0 0 0
0 0 0 0 0 0 0 0 0 0 0 0 0 0 0 0 0 0 0 0 0 0 0 0 0 0 0 0 0 0 0 0 0 0 0 0 0 0 0 0 0 0 0 0 0 0 0 0 0
0 0 0 0 0 0 0 0 0 0 0 0 0 0 0 0 0 0 0 0 0 0 0 0 0 0 0 0 0 0 0 0 0 0 0 0 0 0 0 0 0 0 0 0 0 0 0 0 0
0 0 0 0 0 0 0 0 0 0 0 0 0 0 0 0 0 0 0 0 0 0 0 0 0 0 0 0 0 0 0 0 0 0 0 0 0 0 0 0 0 0 0 0 0 0 0 0 0
0 0 0 0 0 0 0 0 0 0 0 0 0 0 0 0 0 0 0 0 0 0 0 0 0 0 0 0 0 0 0 0 0 0 0 0 0 0 0 0 0 0 0 0 0 0 0 0 0
0 0 0 0 0 0 0 0 0 0 0 0 0 0 0 0 0 0 0 0 0 0 0 0 0 0 0 0 0 0 0 0 0 0 0 0 0 0 0 0 0 0 0 0 0 0 0 0 0
0 0 0 0 0 0 0 0 0 0 0 0 0 0 0 0 0 0 0 0 0 0 0 0 0 0 0 0 0 0 0 0 0 0 0 0 0 0 0 0 0 0 0 0 0 0 0 0 0
0 0 0 0 0 0 0 0 0 0 0 0 0 0 0 0 0 0 0 0 0 0 0 0 0 0 0 0 0 0 0 0 0 0 0 0 0 0 0 0 0 0 0 0 0 0 0 0 0
0 0 0 0 0 0 0 0 0 0 0 0 0 0 0 0 0 0 0 0 0 0 0 0 0 0 0 0 0 0 0 0 0 0 0 0 0 0 0 0 0 0 0 0 0 0 0 0 0
0 0 0 0 0 0 0 0 0 0 0 0 0 0 0 0 0 0 0 0 0 0 0 0 0 0 0 0 0 0 0 0 0 0 0 0 0 0 0 0 0 0 0 0 0 0 0 0 0
0 0 0 0 0 0 0 0 0 0 0 0 0 0 0 0 0 0 0 0 0 0 0 0 0 0 0 0 0 0 0 0 0 0 0 0 0 0 0 0 0 0 0 0 0 0 0 0 0
0 0 0 0 0 0 0 0 0 0 0 0 0 0 0 0 0 0 0 0 0 0 0 0 0 0 0 0 0 0 0 0 0 0 0 0 0 0 0 0 0 0 0 0 0 0 0 0 0
0 0 0 0 0 0 0 0 0 0 0 0 0 0 0 0 0 0 0 0 0 0 0 0 0 0 0 0 0 0 0 0 0 0 0 0 0 0 0 0 0 0 0 0 0 0 0 0 0
0 0 0 0 0 0 0 0 0 0 0 0 0 0 0 0 0 0 0 0 0 0 0 0 0 0 0 0 0 0 0 0 0 0 0 0 0 0 0 0 0 0 0 0 0 0 0 0 0
0 0 0 0 0 0 0 0 0 0 0 0 0 0 0 0 0 0 0 0 0 0 0 0 0 0 0 0 0 0 0 0 0 0 0 0 0 0 0 0 0 0 0 0 0 0 0 0 0
0 0 0 0 0 0 0 0 0 0 0 0 0 0 0 0 0 0 0 0 0 0 0 0 0 0 0 0 0 0 0 0 0 0 0 0 0 0 0 0 0 0 0 0 0 0 0 0 0
0 0 0 0 0 0 0 0 0 0 0 0 0 0 0 0 0 0 0 0 0 0 0 0 0 0 0 0 0 0 0 0 0 0 0 0 0 0 0 0 0 0 0 0 0 0 0 0 0
0 0 0 0 0 0 0 0 0 0 0 0 0 0 0 0 0 0 0 0 0 0 0 0 0 0 0 0 0 0 0 0 0 0 0 0 0 0 0 0 0 0 0 0 0 0 0 0 0
0 0 0 0 0 0 0 0 0 0 0 0 0 0 0 0 0 0 0 0 0 0 0 0 0 0 0 0 0 0 0 0 0 0 0 0 0 0 0 0 0 0 0 0 0 0 0 0 0
0 0 0 0 0 0 0 0 0 0 0 0 0 0 0 0 0 0 0 0 0 0 0 0 0 0 0 0 0 0 0 0 0 0 0 0 0 0 0 0 0 0 0 0 0 0 0 0 0
0 0 0 0 0 0 0 0 0 0 0 0 0 0 0 0 0 0 0 0 0 0 0 0 0 0 0 0 0 0 0 0 0 0 0 0 0 0 0 0 0 0 0 0 0 0 0 0 0
0 0 0 0 0 0 0 0 0 0 0 0 0 0 0 0 0 0 0 0 0 0 0 0 0 0 0 0 0 0 0 0 0 0 0 0 0 0 0 0 0 0 0 0 0 0 0 0 0
0 0 0 0 0 0 0 0 0 0 0 0 0 0 0 0 0 0 0 0 0 0 0 0 0 0 0 0 0 0 0 0 0 0 0 0 0 0 0 0 0 0 0 0 0 0 0 0 0
0 0 0 0 0 0 0 0 0 0 0 0 0 0 0 0 0 0 0 0 0 0 0 0 0 0 0 0 0 0 0 0 0 0 0 0 0 0 0 0 0 0 0 0 0 0 0 0 0
0 0 0 0 0 0 0 0 0 0 0 0 0 0 0 0 0 0 0 0 0 0 0 0 0 0 0 0 0 0 0 0 0 0 0 0 0 0 0 0 0 0 0 0 0 0 0 0 0
0 0 0 0 0 0 0 0 0 0 0 0 0 0 0 0 0 0 0 0 0 0 0 0 0 0 0 0 0 0 0 0 0 0 0 0 0 0 0 0 0 0 0 0 0 0 0 0 0
0 0 0 0 0 0 0 0 0 0 0 0 0 0 0 0 0 0 0 0 0 0 0 0 0 0 0 0 0 0 0 0 0 0 0 0 0 0 0 0 0 0 0 0 0 0 0 0 0
0 0 0 0 0 0 0 0 0 0 0 0 0 0 0 0 0 0 0 0 0 0 0 0 0 0 0 0 0 0 0 0 0 0 0 0 0 0 0 0 0 0 0 0 0 0 0 0 0
0 0 0 0 0 0 0 0 0 0 0 0 0 0 0 0 0 0 0 0 0 0 0 0 0 0 0 0 0 0 0 0 0 0 0 0 0 0 0 0 0 0 0 0 0 0 0 0 0
0 0 0 0 0 0 0 0 0 0 0 0 0 0 0 0 0 0 0 0 0 0 0 0 0 0 0 0 0 0 0 0 0 0 0 0 0 0 0 0 0 0 0 0 0 0 0 0 0
Wind_Speed
7 5 2 1 2 3 2 2 1 2 3 2 4 6 6 4 2 2 0 4 4 4 3 5 7 8 8 8 8 9 9 10 10 11 11 11 11 11 10 10 9 9 9 9 9 9 9 9 9
5 4 1 1 3 2 3 2 1 1 3 4 4 5 6 5 3 3 2 3 4 4 2 4 7 8 8 8 8 9 10 10 11 11 11 10 10 10 9 9 9 9 9 9 9 8 8 8 8
6 3 0 2 1 1 1 1 2 3 3 2 4 5 4 3 2 2 2 5 4 3 2 3 8 8 8 8 8 9 10 11 11 10 10 10 10 9 8 8 8 8 9 8 8 8 7 7 7
3 1 1 3 2 2 2 1 3 3 3 4 4 5 4 3 2 3 5 5 5 3 2 3 7 8 9 9 9 9 9 10 10 10 9 9 9 8 7 7 7 7 8 7 7 7 6 6 6
1 1 3 3 2 1 0 2 2 2 2 4 5 4 3 4 5 7 6 5 4 3 2 2 7 9 9 9 8 8 9 9 9 8 8 8 8 7 7 7 6 6 6 6 5 5 5 5 4
2 3 3 2 2 2 1 2 3 4 4 4 4 4 2 2 5 5 5 4 3 3 2 2 6 8 8 8 8 8 8 8 8 8 7 7 6 6 6 6 6 5 5 5 4 4 4 3 3
2 2 1 0 1 1 1 2 3 4 4 3 4 4 2 2 3 5 4 4 4 3 2 2 2 4 6 7 7 6 6 7 7 7 6 6 6 5 4 4 4 4 4 4 3 3 3 2 2
2 3 1 1 0 1 1 2 2 3 3 3 4 5 4 4 5 5 5 4 3 3 2 2 2 2 2 2 5 5 5 6 6 5 5 5 4 4 3 2 3 3 3 3 2 2 2 2 2
2 3 0 2 3 1 2 3 2 3 4 2 2 3 5 9 8 6 4 3 2 2 1 1 2 2 2 1 3 3 4 4 3 3 3 3 2 1 1 1 1 1 2 2 2 2 2 1 2
3 2 4 3 4 3 2 2 3 3 3 3 4 6 9 9 8 7 5 4 3 3 2 1 1 1 1 1 2 1 1 1 1 1 1 1 1 1 0 1 1 1 1 1 1 1 1 0 0
3 3 2 1 2 4 3 2 2 5 2 4 7 10 10 8 7 6 5 4 4 3 2 2 2 1 1 1 1 1 1 1 1 1 1 1 1 1 1 1 1 2 1 1 1 2 1 1 1
2 3 2 1 1 3 4 3 3 3 3 5 9 11 10 9 8 7 6 5 3 3 3 2 2 2 1 1 1 1 1 1 0 0 1 1 1 1 1 1 1 1 1 1 1 1 1 1 1
0 2 1 1 1 2 4 3 3 1 2 7 9 10 9 8 7 5 4 4 3 3 3 3 3 2 1 1 1 1 1 1 1 1 1 1 1 0 0 1 0 1 0 0 1 1 1 1 1
1 1 1 1 2 2 5 2 3 1 6 8 9 8 7 7 7 5 4 4 4 4 4 3 3 3 2 2 1 1 1 1 1 1 1 2 1 1 1 1 1 1 1 1 1 1 1 1 1
1 3 4 2 2 2 5 3 1 3 7 7 7 7 6 5 5 6 6 5 5 4 4 3 4 3 3 3 2 1 1 1 1 1 1 2 2 2 1 1 1 1 1 1 0 1 0 1 1
3 3 2 2 1 2 4 1 2 6 8 7 6 6 6 5 5 5 5 4 4 4 4 4 4 4 3 2 2 1 1 1 1 1 1 2 2 2 1 1 1 1 1 1 1 0 0 1 1
4 1 0 2 1 1 2 2 1 6 7 6 6 6 5 4 4 4 5 5 5 4 4 4 3 4 3 2 1 0 0 0 1 0 1 1 1 2 2 1 1 1 0 0 1 1 1 0 1
2 1 1 2 2 2 1 1 1 5 6 6 5 5 5 5 6 4 4 5 5 4 4 3 3 2 2 2 1 1 1 1 0 0 1 1 1 2 2 1 1 1 1 0 0 0 1 1 0
3 2 2 3 2 2 1 1 2 4 4 4 4 5 5 5 3 3 3 4 4 4 4 3 3 2 2 1 1 1 0 1 1 1 1 1 1 1 2 1 1 1 1 1 1 1 1 1 1
3 2 2 1 1 3 2 1 1 3 5 6 6 6 6 4 2 2 3 3 4 4 4 4 3 3 3 2 1 1 1 0 0 1 1 1 1 1 1 2 1 1 1 1 1 1 1 0 1
3 5 4 2 1 3 2 3 1 1 2 3 3 4 4 6 5 4 4 4 4 5 5 4 4 3 3 2 2 2 2 1 1 1 1 2 0 0 0 1 1 1 1 1 1 1 2 1 0
4 5 5 3 2 1 1 1 5 2 2 4 5 5 5 5 5 5 4 4 5 5 5 4 4 4 3 3 3 3 2 1 1 1 1 1 1 0 0 1 1 1 1 1 1 1 1 2 1
4 2 3 3 3 1 2 1 6 1 3 6 6 6 7 6 6 6 6 6 5 4 4 4 4 4 3 3 3 3 2 2 1 0 1 1 1 1 0 1 1 1 1 1 1 1 1 1 2
5 6 5 5 4 1 2 2 6 4 6 5 6 6 6 6 6 5 4 4 3 4 4 4 4 3 3 3 3 3 3 2 1 1 1 1 1 1 1 0 1 1 1 1 1 2 2 2 2
4 6 3 4 3 4 2 2 8 6 5 6 6 8 7 6 6 5 5 5 5 5 5 4 4 4 3 3 3 3 3 3 3 2 2 1 0 1 1 1 1 1 1 1 1 1 1 2 2
4 7 7 5 4 4 1 5 7 4 2 3 4 5 6 6 6 6 6 6 6 6 5 5 5 4 3 3 3 3 3 2 2 2 2 2 2 2 1 1 1 1 1 1 1 1 1 1 2
5 3 5 7 2 0 4 5 7 1 0 1 3 4 5 6 6 6 5 5 5 6 6 7 6 4 4 4 3 2 3 3 2 2 2 1 1 1 1 1 1 1 1 1 1 1 1 1 1
5 7 5 5 5 2 4 4 5 4 3 1 2 4 4 4 5 5 5 5 5 5 5 5 5 5 4 4 3 3 3 3 2 2 2 2 2 1 1 1 1 1 1 1 1 1 1 1 1
4 4 5 4 4 6 3 6 5 6 5 4 4 4 5 5 5 5 5 4 4 4 4 4 4 4 3 3 3 2 2 2 2 2 2 2 1 1 1 2 1 1 1 1 1 1 1 1 0
4 6 7 5 3 3 4 7 4 4 4 4 4 3 3 4 4 4 4 4 4 4 3 3 3 3 3 3 2 2 2 2 2 2 2 1 1 1 1 1 1 1 1 1 2 2 1 1 1
Wind_Direction
158 148 152 152 48 42 334 311 349 26 41 35 61 80 88 76 91 128 55 124 124 132 142 148 146 141 137 134 133 132 133 133 132 131 130 132 135 135 135 135 135 136 134 131 128 128 128 130 132
146 156 180 45 68 40 319 319 50 77 133 136 78 72 73 67 66 99 106 122 121 127 129 147 144 140 139 137 135 134 134 135 134 133 133 134 137 136 136 136 137 137 138 137 134 133 132 134 136
162 189 128 64 62 170 274 316 103 90 116 101 76 63 74 86 99 128 144 128 110 110 120 153 147 147 143 139 135 135 134 136 136 136 137 139 140 138 137 137 136 139 142 141 140 137 137 139 140
166 166 45 58 15 267 207 206 126 120 62 49 81 66 58 43 114 128 124 121 113 109 116 158 150 151 146 139 135 135 134 136 138 140 142 143 143 142 143 139 139 140 143 144 144 144 143 144 145
159 77 46 23 338 327 103 159 126 91 72 59 78 79 43 18 89 113 121 124 124 116 108 131 138 141 141 138 134 134 136 137 140 141 143 145 146 145 146 144 143 141 142 144 145 147 150 153 159
56 57 59 10 339 351 26 85 95 86 89 86 85 87 52 66 106 121 122 123 122 117 105 111 138 136 138 138 138 137 136 137 136 135 136 141 142 143 145 147 147 148 149 153 157 161 162 169 180
90 74 80 309 332 356 105 98 104 108 99 108 114 99 102 124 130 123 112 106 102 96 90 84 102 126 139 142 145 143 139 139 138 134 132 139 144 149 150 152 154 156 158 165 176 184 179 184 196
136 94 42 324 255 303 105 91 99 107 100 107 111 131 169 174 138 112 94 88 90 84 80 83 86 86 100 132 146 148 146 142 140 139 140 141 143 152 159 164 165 172 178 179 188 205 216 219 223
132 76 250 228 195 203 111 95 76 75 94 84 93 136 150 135 125 114 103 96 101 114 89 100 107 98 97 111 145 140 144 138 135 134 135 118 83 93 139 179 181 190 198 196 216 233 236 237 236
117 135 230 219 183 162 125 114 132 96 84 74 78 92 118 129 136 141 148 155 161 170 169 150 147 132 110 125 96 73 90 84 79 73 76 70 74 67 72 355 290 290 258 251 258 268 261 332 295
157 203 243 244 170 145 127 121 116 125 147 177 156 146 142 145 153 161 167 169 180 181 173 167 169 146 134 107 97 77 73 69 59 71 81 83 74 35 24 11 351 348 355 4 3 16 12 5 55
167 258 235 275 135 135 145 140 116 157 201 165 153 150 152 161 172 179 180 182 175 170 184 175 163 157 158 130 120 122 104 115 126 98 99 95 80 41 9 349 335 356 12 12 11 16 354 353 34
176 296 329 192 69 122 119 124 128 145 116 125 136 147 162 174 183 188 185 179 175 186 193 186 165 165 158 140 200 165 176 187 167 147 140 142 150 202 271 287 324 313 326 325 325 341 337 335 330
234 357 351 27 82 118 123 109 102 146 126 131 147 163 175 182 184 181 182 186 188 194 195 185 165 166 165 180 201 194 197 193 168 190 191 177 173 189 213 261 274 260 235 219 255 294 308 311 314
43 38 16 33 83 120 105 58 161 155 138 147 163 172 180 189 187 191 191 189 193 193 188 176 171 164 175 191 205 196 190 177 196 220 217 203 193 191 196 222 257 256 231 213 232 297 346 328 333
31 47 15 316 60 115 114 231 226 150 149 162 173 178 184 195 199 201 193 189 190 185 180 182 180 167 181 191 211 210 186 174 214 222 234 237 222 201 192 213 257 260 223 194 187 215 39 353 5
27 41 310 310 317 106 117 239 225 157 160 176 182 187 188 195 208 211 199 189 185 181 176 174 170 168 179 181 172 176 91 188 232 229 241 248 240 208 191 212 257 242 183 179 226 126 140 67 359
238 226 252 259 264 99 97 281 196 167 172 184 189 196 194 203 215 207 196 187 177 171 166 166 172 168 151 133 93 50 29 350 323 244 240 231 230 203 180 192 240 208 143 112 134 117 103 122 69
171 178 256 263 226 118 151 269 255 177 179 186 195 201 201 214 218 193 183 179 167 163 161 173 173 162 134 124 132 123 285 328 333 293 263 251 227 188 170 180 187 162 162 197 177 135 94 65 78
175 194 248 317 39 123 117 319 297 184 199 201 198 202 205 204 200 185 182 175 176 175 172 173 173 161 157 157 149 141 148 174 211 328 343 307 234 198 184 173 174 160 142 119 122 135 111 57 77
209 194 197 192 28 55 97 338 311 256 206 202 199 195 190 196 196 191 189 193 186 186 185 184 174 165 162 143 106 84 69 45 30 354 342 336 2 86 179 164 155 169 168 190 207 167 160 169 83
235 213 175 156 100 342 67 267 281 245 225 214 211 195 195 198 191 192 192 195 200 197 184 173 167 168 166 150 142 143 156 186 221 237 290 335 0 345 219 168 161 167 164 189 221 165 174 161 184
199 130 122 116 121 52 10 152 285 284 241 238 220 206 203 197 192 195 198 199 198 189 183 178 171 174 169 162 163 164 189 205 202 218 308 320 336 328 296 182 165 171 183 198 200 168 172 172 180
135 80 60 54 71 351 252 172 272 227 221 229 218 209 201 194 194 196 190 175 182 178 179 176 173 189 178 169 176 184 196 194 185 216 254 294 322 331 334 165 178 197 202 210 205 203 190 191 185
106 99 48 10 10 255 246 198 249 246 223 211 204 200 195 185 184 187 181 180 185 186 189 181 181 190 181 178 189 197 198 190 199 214 217 223 285 307 302 285 215 222 225 219 201 186 205 202 194
168 141 157 184 212 267 277 236 255 267 253 198 182 179 175 176 186 190 191 190 191 194 194 184 188 194 184 188 199 201 197 196 204 205 197 208 227 243 262 246 228 221 216 217 184 181 220 200 207
140 157 157 131 150 206 273 283 300 295 45 141 160 161 178 186 192 193 188 189 194 194 192 187 185 190 191 198 195 198 193 194 201 201 197 221 240 243 245 245 238 235 208 193 174 200 239 194 215
127 141 106 121 149 219 283 269 252 265 254 223 176 179 190 188 191 187 184 188 193 195 190 173 176 188 189 189 195 195 195 198 195 179 195 219 238 239 226 253 241 231 226 207 183 215 227 186 240
116 103 109 114 148 156 225 268 232 213 210 205 207 194 188 184 186 183 179 177 173 169 165 172 176 176 176 185 188 184 187 184 178 188 213 221 233 229 223 228 224 229 232 219 195 213 201 184 246
143 153 145 147 192 167 170 263 292 212 196 190 200 192 175 173 174 167 160 149 148 154 159 167 173 175 185 180 168 179 182 163 173 204 222 213 220 234 229 220 213 231 225 210 194 205 183 184 214